Temp
-13 -13 -13 -13 -12 -12 -12 -12 -13 -13 -13 -13 -13 -12 -12 -12 -12 -12 -12 -12 -12 -12 -12 -12 -12 -12 -13 -13 -13 -13 -13 -13 -13 -13 -13 -13 -13 -13 -13 -13 -13 -13
-14 -13 -13 -13 -13 -13 -13 -13 -13 -13 -13 -13 -13 -13 -12 -12 -12 -12 -12 -13 -13 -13 -13 -13 -13 -13 -13 -13 -13 -13 -13 -13 -13 -13 -13 -13 -13 -13 -13 -13 -13 -13
-14 -14 -14 -13 -13 -13 -13 -13 -13 -13 -13 -13 -13 -13 -13 -13 -13 -13 -13 -13 -13 -13 -13 -13 -13 -13 -13 -13 -13 -13 -13 -13 -13 -13 -13 -13 -13 -13 -13 -13 -13 -13
-14 -14 -14 -14 -14 -13 -13 -13 -13 -13 -13 -13 -13 -13 -13 -13 -13 -13 -13 -13 -13 -13 -13 -13 -13 -13 -13 -13 -13 -13 -13 -13 -13 -13 -13 -13 -13 -13 -13 -13 -13 -14
-15 -14 -14 -14 -14 -14 -14 -13 -13 -13 -13 -13 -13 -13 -13 -13 -13 -13 -13 -13 -13 -13 -13 -13 -13 -13 -13 -13 -13 -13 -13 -13 -13 -13 -13 -13 -13 -13 -13 -13 -13 -14
-15 -14 -14 -14 -14 -14 -14 -14 -14 -13 -13 -13 -13 -13 -13 -13 -13 -13 -13 -13 -13 -13 -13 -13 -13 -13 -13 -13 -13 -13 -13 -13 -13 -13 -13 -13 -13 -13 -13 -13 -13 -14
-15 -15 -14 -14 -14 -14 -14 -14 -14 -14 -14 -14 -13 -13 -13 -13 -13 -13 -13 -13 -13 -13 -13 -13 -13 -13 -13 -13 -13 -13 -13 -13 -13 -13 -13 -13 -13 -13 -13 -13 -13 -13
-15 -15 -15 -15 -15 -14 -14 -14 -14 -14 -14 -14 -14 -14 -14 -13 -13 -13 -13 -13 -13 -13 -13 -13 -13 -13 -13 -13 -13 -13 -14 -14 -13 -13 -13 -13 -13 -13 -13 -13 -13 -13
-15 -15 -15 -15 -15 -15 -15 -15 -14 -14 -14 -14 -14 -14 -14 -14 -13 -13 -13 -13 -13 -13 -13 -13 -13 -13 -13 -13 -13 -14 -14 -14 -14 -13 -13 -13 -13 -13 -13 -13 -13 -13
-16 -16 -15 -15 -15 -15 -15 -15 -15 -14 -14 -14 -14 -14 -14 -14 -14 -13 -13 -13 -13 -13 -13 -13 -13 -13 -13 -13 -13 -13 -14 -14 -14 -13 -13 -13 -13 -13 -13 -13 -13 -14
-16 -16 -16 -16 -15 -15 -15 -15 -15 -15 -15 -14 -14 -14 -14 -14 -14 -14 -14 -13 -13 -13 -13 -13 -13 -13 -13 -13 -13 -13 -14 -14 -14 -14 -14 -14 -14 -14 -14 -14 -14 -14
-16 -16 -16 -16 -16 -15 -15 -15 -15 -15 -15 -15 -15 -14 -14 -14 -14 -14 -14 -14 -14 -13 -13 -13 -13 -13 -13 -13 -14 -14 -14 -14 -14 -14 -14 -14 -14 -14 -14 -14 -14 -14
-16 -16 -16 -16 -16 -15 -15 -15 -15 -15 -15 -15 -15 -15 -14 -14 -14 -14 -14 -14 -14 -14 -14 -14 -14 -14 -13 -14 -14 -14 -14 -14 -14 -14 -14 -14 -14 -14 -14 -14 -14 -14
-16 -16 -16 -16 -16 -16 -15 -15 -15 -15 -15 -15 -15 -15 -15 -15 -14 -14 -14 -14 -14 -14 -14 -14 -14 -14 -14 -14 -14 -14 -14 -14 -14 -14 -14 -14 -14 -14 -14 -14 -14 -14
-16 -16 -16 -16 -16 -16 -16 -16 -15 -15 -15 -15 -15 -15 -15 -15 -15 -15 -15 -14 -14 -14 -14 -14 -14 -14 -14 -14 -14 -14 -14 -14 -14 -14 -14 -14 -14 -14 -14 -14 -14 -14
-17 -17 -16 -16 -16 -16 -16 -16 -16 -16 -15 -15 -15 -15 -15 -15 -15 -15 -15 -15 -14 -14 -14 -14 -14 -14 -14 -14 -14 -14 -15 -15 -15 -15 -15 -15 -15 -15 -15 -15 -15 -14
-17 -17 -16 -16 -16 -16 -16 -16 -16 -16 -16 -16 -15 -15 -15 -15 -15 -15 -15 -15 -15 -15 -15 -15 -15 -15 -15 -15 -15 -15 -15 -15 -15 -15 -15 -15 -15 -15 -15 -15 -15 -15
-17 -17 -16 -16 -16 -16 -16 -16 -16 -16 -16 -16 -16 -16 -15 -15 -15 -15 -15 -15 -15 -15 -15 -15 -15 -15 -15 -15 -15 -15 -15 -15 -15 -15 -15 -15 -15 -15 -15 -15 -15 -15
-17 -17 -17 -17 -17 -16 -16 -16 -16 -16 -16 -16 -16 -16 -16 -16 -16 -16 -16 -16 -15 -15 -15 -15 -15 -15 -15 -15 -15 -15 -15 -16 -16 -16 -16 -16 -16 -15 -15 -15 -15 -15
-17 -17 -17 -17 -17 -16 -16 -17 -17 -16 -16 -16 -16 -16 -16 -16 -16 -16 -16 -16 -16 -16 -16 -16 -16 -16 -16 -16 -16 -16 -16 -16 -16 -16 -16 -16 -16 -16 -16 -16 -15 -15
-17 -17 -17 -17 -17 -17 -17 -17 -17 -17 -16 -16 -17 -17 -17 -16 -16 -16 -16 -16 -16 -16 -16 -16 -16 -16 -16 -16 -16 -16 -16 -16 -16 -16 -16 -16 -16 -16 -16 -16 -16 -16
-17 -17 -17 -17 -17 -17 -17 -17 -17 -17 -17 -17 -17 -17 -17 -17 -16 -16 -16 -16 -16 -16 -16 -16 -16 -16 -16 -16 -16 -16 -16 -16 -16 -16 -16 -16 -16 -16 -16 -16 -16 -16
-17 -17 -17 -17 -17 -17 -17 -17 -17 -17 -17 -17 -17 -17 -17 -17 -17 -17 -17 -16 -16 -16 -16 -16 -16 -16 -16 -16 -16 -16 -16 -16 -16 -16 -16 -16 -16 -16 -16 -16 -16 -16
-17 -17 -17 -17 -17 -17 -17 -17 -17 -17 -17 -17 -17 -17 -17 -17 -17 -17 -17 -17 -17 -17 -17 -17 -17 -17 -17 -17 -17 -17 -17 -17 -17 -17 -17 -17 -17 -17 -17 -16 -16 -16
-17 -17 -17 -17 -17 -17 -17 -17 -17 -17 -17 -17 -17 -17 -17 -17 -17 -17 -17 -17 -17 -17 -17 -17 -17 -17 -17 -17 -17 -17 -17 -17 -17 -17 -17 -17 -17 -17 -17 -17 -17 -17
-17 -17 -17 -17 -17 -17 -17 -17 -17 -17 -17 -17 -17 -17 -17 -17 -17 -17 -17 -17 -17 -17 -17 -17 -17 -17 -17 -17 -17 -17 -17 -17 -17 -17 -17 -17 -17 -17 -17 -17 -17 -17
Height
5801 5801 5801 5801 5800 5800 5799 5798 5798 5798 5798 5797 5797 5797 5796 5796 5795 5795 5794 5793 5793 5792 5791 5790 5789 5788 5787 5786 5785 5784 5783 5781 5780 5778 5777 5775 5773 5771 5770 5768 5766 5764
5798 5798 5798 5797 5797 5796 5796 5795 5795 5795 5795 5795 5794 5794 5793 5793 5792 5792 5791 5790 5790 5789 5788 5787 5786 5785 5784 5784 5783 5781 5780 5779 5777 5775 5774 5772 5770 5768 5766 5765 5763 5760
5795 5795 5795 5795 5794 5794 5793 5793 5793 5793 5792 5792 5792 5791 5791 5790 5789 5789 5788 5787 5786 5785 5784 5783 5782 5782 5781 5780 5780 5778 5777 5776 5774 5773 5771 5769 5767 5765 5763 5761 5760 5757
5793 5793 5793 5793 5792 5792 5791 5791 5791 5790 5790 5789 5789 5789 5788 5787 5786 5785 5784 5784 5783 5782 5781 5780 5779 5778 5777 5777 5776 5775 5774 5773 5771 5770 5768 5766 5764 5762 5760 5758 5756 5754
5791 5791 5791 5790 5790 5790 5789 5789 5788 5788 5787 5787 5786 5786 5785 5784 5783 5782 5781 5780 5779 5778 5777 5776 5775 5774 5774 5773 5772 5771 5770 5769 5768 5766 5764 5763 5760 5758 5756 5754 5753 5751
5788 5788 5788 5788 5787 5787 5786 5786 5785 5785 5784 5783 5783 5782 5781 5780 5779 5778 5777 5776 5775 5774 5773 5773 5772 5771 5770 5769 5768 5767 5766 5765 5764 5762 5761 5759 5757 5755 5753 5751 5749 5748
5785 5785 5785 5785 5784 5784 5783 5783 5782 5781 5781 5780 5779 5778 5777 5776 5775 5774 5773 5772 5771 5770 5769 5769 5768 5767 5766 5765 5764 5763 5762 5761 5760 5758 5757 5755 5753 5751 5749 5747 5745 5744
5782 5782 5782 5782 5781 5781 5780 5779 5778 5778 5777 5776 5776 5775 5774 5772 5771 5770 5770 5768 5767 5766 5765 5765 5764 5763 5762 5761 5760 5759 5758 5756 5755 5754 5752 5751 5749 5747 5745 5743 5742 5740
5780 5780 5779 5779 5778 5777 5777 5776 5775 5774 5774 5773 5772 5771 5770 5769 5767 5766 5765 5764 5763 5762 5761 5761 5760 5759 5758 5757 5756 5755 5753 5752 5751 5749 5748 5746 5745 5743 5741 5739 5738 5736
5777 5777 5776 5775 5775 5774 5774 5773 5772 5771 5770 5769 5768 5767 5766 5765 5764 5762 5761 5760 5759 5758 5757 5756 5755 5754 5753 5752 5751 5750 5749 5747 5746 5745 5743 5742 5740 5739 5737 5735 5734 5732
5774 5773 5773 5772 5772 5771 5771 5770 5768 5767 5766 5765 5764 5763 5762 5761 5759 5758 5757 5756 5755 5754 5753 5752 5751 5750 5749 5748 5746 5745 5744 5742 5741 5740 5739 5737 5736 5734 5733 5731 5730 5728
5770 5770 5770 5769 5769 5768 5767 5766 5765 5763 5762 5761 5760 5759 5758 5756 5755 5754 5753 5752 5750 5749 5748 5747 5746 5745 5744 5743 5742 5740 5738 5737 5736 5735 5734 5733 5731 5730 5728 5727 5725 5724
5767 5767 5766 5766 5765 5765 5764 5762 5761 5760 5758 5757 5756 5754 5753 5752 5751 5749 5748 5747 5746 5744 5743 5742 5741 5740 5739 5738 5737 5735 5734 5732 5731 5730 5729 5728 5726 5725 5724 5722 5721 5719
5764 5763 5763 5762 5762 5761 5760 5759 5757 5756 5754 5753 5752 5750 5749 5747 5746 5744 5743 5742 5741 5739 5738 5737 5736 5735 5734 5733 5731 5730 5729 5727 5726 5725 5724 5723 5721 5720 5719 5717 5716 5715
5760 5760 5759 5759 5758 5757 5756 5755 5753 5752 5750 5749 5747 5746 5744 5743 5741 5740 5738 5737 5735 5734 5733 5732 5731 5729 5728 5727 5726 5725 5723 5722 5721 5720 5719 5718 5716 5715 5714 5712 5711 5709
5756 5756 5755 5755 5754 5753 5752 5751 5749 5748 5746 5745 5743 5741 5740 5738 5736 5735 5733 5732 5730 5729 5727 5726 5725 5724 5722 5721 5720 5719 5718 5717 5715 5714 5714 5712 5711 5710 5708 5707 5705 5704
5753 5752 5751 5750 5750 5749 5748 5747 5745 5743 5742 5740 5738 5736 5735 5733 5731 5730 5728 5727 5725 5723 5722 5720 5719 5718 5717 5716 5714 5713 5712 5711 5710 5709 5707 5707 5706 5704 5703 5702 5700 5699
5749 5748 5747 5746 5745 5745 5744 5742 5741 5739 5737 5735 5733 5731 5730 5728 5726 5725 5723 5721 5720 5718 5717 5715 5714 5712 5711 5710 5709 5708 5707 5705 5704 5703 5702 5701 5699 5698 5698 5697 5695 5694
5744 5744 5743 5742 5741 5740 5739 5738 5736 5734 5732 5730 5728 5726 5725 5723 5721 5719 5718 5716 5714 5713 5711 5710 5708 5707 5705 5704 5703 5702 5701 5700 5699 5697 5696 5695 5694 5692 5692 5691 5690 5689
5740 5740 5739 5738 5737 5736 5734 5733 5731 5729 5727 5725 5723 5721 5720 5718 5716 5714 5713 5711 5709 5707 5706 5704 5703 5701 5700 5698 5697 5696 5694 5693 5692 5691 5690 5689 5688 5687 5686 5685 5684 5683
5736 5735 5735 5734 5733 5731 5730 5728 5726 5724 5722 5720 5718 5716 5715 5713 5711 5709 5707 5706 5704 5702 5701 5699 5697 5696 5694 5693 5691 5690 5688 5687 5686 5685 5684 5683 5682 5681 5680 5679 5678 5677
5732 5731 5730 5729 5728 5727 5725 5723 5721 5719 5717 5715 5713 5711 5710 5708 5706 5704 5702 5700 5699 5697 5695 5693 5692 5690 5689 5687 5686 5684 5682 5681 5680 5678 5677 5676 5675 5674 5673 5673 5672 5671
5728 5727 5726 5725 5724 5722 5720 5718 5716 5714 5712 5710 5708 5707 5705 5703 5701 5699 5697 5695 5693 5691 5689 5687 5685 5683 5682 5680 5679 5677 5676 5675 5673 5672 5671 5670 5668 5667 5667 5666 5665 5664
5724 5723 5722 5721 5719 5717 5715 5713 5711 5709 5708 5706 5704 5702 5700 5698 5696 5693 5691 5689 5687 5685 5683 5680 5678 5676 5674 5673 5671 5670 5668 5667 5666 5665 5664 5663 5662 5661 5660 5659 5659 5658
5720 5719 5718 5716 5714 5712 5711 5709 5707 5705 5703 5701 5699 5697 5695 5693 5690 5688 5686 5683 5681 5679 5676 5674 5671 5669 5667 5665 5663 5661 5660 5659 5658 5657 5656 5656 5655 5654 5653 5653 5652 5652
5716 5715 5713 5711 5710 5708 5706 5704 5703 5701 5699 5697 5694 5692 5690 5687 5685 5682 5680 5677 5675 5672 5670 5667 5664 5662 5660 5657 5655 5653 5651 5650 5649 5648 5648 5647 5647 5647 5646 5646 5645 5645
Wind_Speed
21 21 21 22 22 22 23 23 24 24 24 24 24 24 24 24 24 24 25 25 25 25 25 25 25 25 25 25 24 24 25 25 26 27 27 27 28 28 28 29 29 29
22 22 22 22 23 23 24 25 25 25 25 25 25 25 25 25 26 26 26 26 26 25 25 25 26 26 26 26 25 25 26 26 26 27 28 28 29 30 30 30 29 30
22 22 22 23 24 25 25 26 26 26 26 26 26 26 27 27 27 27 27 27 26 26 26 26 26 27 28 28 27 27 27 27 27 28 28 29 30 30 30 30 29 29
22 22 23 24 25 26 26 26 26 26 26 27 27 27 28 28 28 28 27 27 27 26 26 27 27 28 29 29 29 28 28 29 28 28 29 29 30 30 30 30 29 29
23 24 25 26 26 26 26 26 26 27 27 27 28 28 29 29 29 28 28 27 27 27 27 27 28 29 29 30 30 30 30 30 30 29 29 29 30 30 30 30 29 29
25 26 26 27 26 26 26 26 26 27 27 28 28 29 30 30 30 30 29 29 28 28 28 28 29 29 30 31 31 31 32 32 32 31 30 30 30 30 30 31 30 29
26 27 28 28 28 28 28 27 27 27 28 28 29 29 30 31 32 32 31 31 30 30 30 30 30 30 31 32 32 33 33 33 33 32 32 31 30 30 31 31 31 30
28 29 29 30 30 29 30 30 29 29 29 29 29 30 31 31 32 33 33 33 33 32 32 32 31 31 32 32 33 33 34 34 34 34 33 32 31 30 31 31 31 31
29 30 30 31 31 31 31 32 32 32 31 31 31 31 31 32 32 33 33 34 34 34 34 33 33 33 33 33 34 34 35 35 35 35 34 34 32 31 31 31 32 31
30 30 31 32 32 32 32 33 33 34 33 33 33 33 33 33 33 33 33 34 34 35 35 35 35 35 35 35 35 35 35 35 36 36 35 35 34 32 31 32 32 32
30 31 32 32 32 33 33 34 35 35 35 35 34 35 35 34 34 33 33 33 34 34 35 35 36 36 36 36 36 37 36 36 36 36 36 35 35 34 33 32 32 33
31 32 33 33 33 34 34 35 35 36 36 36 36 36 36 36 35 35 34 34 34 35 35 35 36 36 37 37 37 37 38 37 37 36 36 35 35 34 34 33 33 33
32 33 34 34 34 34 35 35 36 37 37 38 38 38 37 36 36 36 35 35 36 36 36 37 37 37 37 38 38 38 38 38 38 37 36 36 35 35 34 34 34 34
33 34 34 34 35 36 36 36 37 37 38 39 39 38 37 36 36 36 36 37 37 37 38 38 39 39 39 39 39 39 39 39 38 37 36 36 36 36 35 35 35 35
34 35 35 35 37 37 37 37 37 38 39 39 38 37 37 36 36 36 37 38 38 38 39 39 40 40 41 41 40 40 40 40 39 38 37 36 36 36 36 36 36 36
36 36 37 37 38 38 38 38 38 39 39 38 37 37 37 37 37 37 38 38 39 40 40 41 41 41 42 42 42 41 40 40 40 39 38 37 36 36 36 36 37 37
37 37 38 39 39 39 39 39 39 40 39 38 37 37 37 37 37 38 38 39 40 40 41 42 42 42 42 42 42 42 41 40 40 39 39 38 37 37 36 37 38 38
37 38 40 41 41 40 40 40 40 40 39 38 38 37 37 38 38 38 39 40 40 41 41 42 42 43 43 43 42 42 41 41 40 40 40 39 38 38 37 37 38 38
38 40 41 41 42 41 41 41 40 39 39 38 38 38 38 38 38 39 39 40 41 41 42 42 42 42 42 42 43 42 42 41 41 40 40 40 40 40 39 39 38 38
39 41 41 42 42 42 42 41 40 39 39 38 38 38 38 39 39 40 40 40 41 41 41 41 41 41 42 42 42 42 42 42 42 41 41 41 41 41 41 40 39 38
40 41 41 42 42 42 42 40 40 39 38 38 38 39 40 40 41 41 41 41 41 41 41 41 42 42 42 42 42 42 42 42 42 42 42 42 42 42 41 41 40 39
40 41 41 42 42 41 41 40 39 38 38 38 40 41 41 42 42 42 42 42 42 43 43 44 44 44 44 44 44 44 43 43 42 42 42 42 42 42 41 41 40 39
40 40 40 41 41 40 39 39 38 38 39 41 42 42 42 42 43 43 44 44 45 46 47 48 48 48 48 48 47 47 46 45 44 43 42 42 42 42 41 40 39 39
39 39 39 39 39 39 38 38 39 40 41 43 43 43 43 43 44 45 46 47 48 49 49 50 51 51 51 51 50 50 49 48 47 46 44 43 42 42 41 40 39 39
38 38 38 38 38 38 38 39 40 41 42 43 43 44 45 46 46 47 48 48 49 49 49 50 50 51 51 51 51 51 50 50 49 48 47 45 44 42 42 40 39 38
37 37 37 37 37 38 39 40 41 42 42 43 44 45 45 46 46 47 47 47 48 48 49 49 50 50 51 51 51 51 52 51 51 49 48 47 46 44 43 42 40 39
Wind_Direction
279 279 279 279 280 282 284 285 284 283 282 281 281 282 283 284 283 283 283 284 284 285 285 285 286 288 290 292 294 295 296 298 299 299 299 300 301 302 304 306 307 308
281 282 283 284 286 288 288 288 288 286 284 282 282 282 282 283 283 283 283 283 283 283 283 284 285 287 288 289 290 291 292 294 296 298 299 300 300 302 304 305 307 308
284 285 287 287 287 287 287 287 287 286 284 283 283 283 283 283 283 283 282 282 283 283 284 285 286 286 286 287 287 288 289 291 294 297 299 300 300 301 303 304 307 308
283 284 283 283 284 284 285 285 285 284 283 283 282 282 282 282 282 282 282 282 283 284 285 286 286 287 286 286 287 287 288 290 293 296 298 300 300 301 302 303 305 308
279 280 279 280 281 283 284 285 285 285 284 283 281 281 281 281 282 283 283 284 284 285 286 287 287 288 288 288 288 288 289 289 291 294 296 298 299 301 301 302 304 306
276 277 277 278 280 283 285 286 287 288 287 286 284 283 282 282 283 284 285 285 286 286 287 288 289 289 289 289 289 289 290 290 291 292 294 296 297 299 301 302 303 304
274 275 277 279 281 284 286 288 289 291 291 291 289 287 285 283 283 284 285 286 286 287 288 289 290 290 290 290 290 290 290 290 290 291 291 293 295 297 300 301 302 302
273 275 278 280 283 286 287 289 291 292 293 293 292 291 289 287 285 285 285 286 287 288 289 290 291 291 291 290 290 290 289 289 290 290 290 291 293 295 297 299 300 301
273 276 279 282 285 286 288 290 292 293 293 293 293 293 292 291 290 289 289 289 289 289 290 291 291 292 292 292 291 291 290 289 289 290 290 290 291 293 295 297 298 300
274 277 280 283 285 286 287 290 292 293 293 294 294 295 294 294 293 292 292 291 291 291 292 292 292 293 293 293 293 292 291 290 289 289 290 290 290 292 293 295 297 298
275 279 281 284 285 285 287 290 292 294 295 296 296 295 295 295 294 294 294 293 293 293 293 293 293 293 294 294 293 292 291 291 290 289 289 289 289 290 291 292 294 296
276 279 282 284 285 285 287 289 292 294 296 296 296 295 294 294 294 294 295 295 295 294 294 294 293 293 294 294 293 293 292 292 291 289 288 287 287 288 289 291 292 294
277 280 283 284 285 286 287 289 292 294 296 296 296 295 294 293 293 294 295 296 296 296 296 296 295 295 295 295 294 293 293 292 291 289 287 286 286 286 287 288 290 292
278 281 283 284 285 286 287 290 292 294 295 295 294 294 294 295 295 295 296 296 297 297 298 297 297 297 297 296 295 294 293 292 290 289 287 285 285 285 285 286 287 290
278 281 283 284 285 286 289 291 293 294 294 294 294 294 294 295 296 297 298 298 299 299 299 299 298 298 297 296 295 294 293 292 290 289 287 285 284 284 284 285 286 288
278 281 284 284 285 288 290 292 294 294 294 294 294 294 295 296 298 299 300 300 300 300 300 300 299 298 297 296 295 293 292 291 290 288 286 284 283 283 284 284 285 286
278 281 283 284 286 289 292 294 295 295 296 296 296 297 298 299 300 301 301 301 301 301 300 300 300 299 298 296 295 293 292 290 289 287 286 285 283 283 283 283 284 285
278 281 283 285 288 291 293 295 297 297 298 299 300 301 301 302 302 302 302 302 302 301 301 300 299 298 297 296 294 293 291 289 288 286 286 285 284 283 282 282 283 284
277 281 284 287 290 293 295 297 298 299 300 301 302 303 303 304 303 303 303 303 302 302 301 300 299 297 296 295 294 292 290 288 287 285 284 284 283 283 282 282 282 283
278 281 285 289 292 294 297 299 300 300 301 302 303 304 304 304 303 303 302 301 301 300 299 299 298 297 296 295 293 292 290 289 287 285 283 283 282 282 282 282 281 281
280 284 287 290 293 296 298 299 300 300 301 303 304 304 304 303 303 302 301 300 299 298 298 297 297 296 296 295 293 292 291 290 288 286 284 283 282 281 281 281 280 280
282 286 289 292 295 297 298 299 300 301 303 305 305 305 304 303 302 301 300 300 299 298 298 297 296 296 295 294 293 291 291 290 288 287 285 284 282 281 279 279 279 278
285 288 291 294 295 297 298 299 301 303 304 305 305 305 304 303 303 302 302 302 301 300 299 298 297 296 295 293 292 291 290 289 287 286 285 284 283 282 280 278 277 276
289 291 293 294 296 297 299 300 302 304 305 305 305 304 304 304 304 304 303 303 302 301 299 298 297 296 294 293 291 290 289 287 286 285 284 283 282 281 281 279 278 276
290 292 293 295 296 298 300 302 303 304 305 305 305 305 305 305 305 304 304 303 302 301 299 298 297 295 294 292 291 289 288 286 284 283 282 281 280 279 279 278 277 276
291 293 294 296 298 300 301 303 304 305 305 306 306 306 306 306 306 305 305 304 303 302 301 299 298 296 294 292 290 289 287 285 284 282 281 280 278 277 276 275 275 274